Temp
-13 -13 -14 -13 -13 -13 -13 -12 -12 -12 -13 -13 -13 -13 -14 -14 -14 -14 -14 -13 -13 -12 -12 -12 -12 -12 -12 -12 -12 -12 -12 -12 -12 -12 -12 -12 -12 -12 -12 -12 -12 -11 -11
-14 -14 -13 -14 -13 -14 -13 -13 -12 -12 -12 -13 -13 -13 -14 -14 -14 -14 -13 -13 -13 -13 -13 -12 -12 -12 -12 -12 -12 -12 -12 -12 -12 -12 -12 -12 -12 -12 -12 -12 -12 -12 -12
-14 -14 -14 -14 -14 -13 -13 -13 -13 -13 -12 -13 -13 -14 -13 -13 -13 -14 -14 -13 -13 -13 -13 -13 -13 -12 -12 -12 -12 -12 -12 -12 -12 -12 -12 -12 -12 -12 -12 -12 -12 -12 -12
-15 -14 -14 -14 -14 -14 -13 -12 -12 -13 -13 -13 -13 -13 -13 -13 -13 -13 -13 -13 -13 -13 -13 -13 -12 -13 -13 -13 -12 -12 -12 -12 -12 -12 -13 -14 -13 -12 -12 -12 -12 -12 -12
-15 -15 -14 -14 -14 -14 -14 -13 -12 -13 -13 -13 -13 -13 -13 -13 -13 -13 -12 -13 -13 -13 -13 -13 -13 -13 -13 -13 -13 -13 -13 -12 -12 -13 -13 -13 -14 -13 -13 -13 -13 -13 -12
-15 -15 -15 -14 -14 -14 -14 -14 -13 -13 -13 -13 -13 -13 -13 -13 -13 -13 -12 -13 -13 -13 -14 -13 -14 -14 -13 -13 -13 -13 -13 -13 -13 -13 -13 -13 -13 -14 -14 -14 -13 -13 -13
-16 -16 -16 -15 -14 -15 -14 -14 -14 -13 -13 -13 -13 -11 -12 -13 -13 -13 -13 -13 -14 -14 -14 -13 -13 -13 -13 -13 -13 -13 -13 -13 -13 -13 -13 -13 -14 -14 -14 -14 -14 -14 -14
-17 -16 -17 -16 -15 -15 -14 -14 -14 -14 -13 -13 -13 -13 -13 -13 -13 -13 -13 -13 -13 -14 -14 -14 -14 -13 -13 -13 -13 -13 -12 -13 -12 -13 -13 -14 -15 -15 -15 -15 -14 -14 -14
-19 -18 -17 -17 -16 -16 -15 -15 -15 -14 -14 -14 -14 -14 -14 -14 -13 -13 -13 -13 -14 -14 -14 -14 -14 -13 -13 -13 -13 -13 -13 -13 -13 -13 -13 -14 -15 -15 -15 -15 -16 -15 -14
-21 -20 -19 -18 -17 -16 -16 -16 -15 -15 -14 -14 -15 -15 -15 -14 -14 -13 -13 -13 -13 -13 -14 -15 -14 -14 -13 -13 -13 -13 -13 -13 -13 -13 -13 -13 -14 -13 -13 -14 -14 -14 -14
-22 -21 -19 -19 -18 -18 -17 -17 -16 -15 -15 -15 -15 -16 -16 -15 -14 -14 -15 -15 -14 -14 -14 -14 -14 -14 -14 -14 -13 -13 -13 -14 -13 -13 -14 -13 -13 -13 -14 -14 -14 -14 -14
-21 -21 -20 -19 -19 -19 -18 -18 -17 -16 -16 -16 -16 -16 -16 -16 -15 -15 -15 -15 -15 -15 -15 -15 -15 -14 -14 -15 -14 -14 -14 -14 -14 -14 -14 -14 -14 -14 -14 -14 -14 -14 -14
-21 -21 -20 -20 -20 -19 -19 -18 -18 -18 -17 -18 -18 -17 -17 -17 -16 -16 -16 -16 -15 -15 -15 -15 -15 -15 -15 -15 -15 -15 -14 -14 -14 -14 -14 -14 -14 -14 -14 -14 -14 -13 -13
-21 -21 -20 -20 -20 -20 -20 -19 -18 -18 -18 -18 -18 -18 -18 -17 -17 -17 -16 -16 -16 -15 -15 -16 -15 -15 -15 -15 -15 -15 -15 -14 -14 -14 -14 -14 -14 -14 -14 -14 -14 -14 -14
-21 -20 -20 -20 -19 -20 -20 -19 -19 -18 -19 -19 -19 -18 -18 -18 -17 -17 -17 -16 -16 -16 -16 -16 -16 -15 -16 -16 -15 -15 -15 -14 -14 -14 -14 -14 -14 -14 -14 -14 -14 -14 -14
-21 -20 -20 -20 -20 -19 -19 -19 -19 -19 -19 -19 -19 -19 -19 -18 -18 -18 -17 -17 -17 -17 -17 -16 -16 -16 -16 -15 -15 -15 -15 -14 -14 -14 -14 -14 -14 -14 -14 -14 -14 -14 -14
-22 -21 -20 -20 -20 -19 -20 -20 -20 -20 -19 -19 -18 -19 -19 -19 -19 -19 -18 -17 -17 -17 -17 -17 -17 -16 -16 -16 -15 -15 -15 -15 -15 -14 -14 -14 -14 -14 -14 -15 -15 -15 -15
-20 -20 -20 -20 -20 -20 -20 -19 -19 -18 -18 -19 -19 -19 -19 -19 -19 -19 -19 -19 -18 -18 -17 -17 -17 -17 -17 -16 -16 -16 -16 -15 -15 -15 -15 -15 -15 -15 -15 -15 -15 -15 -15
-19 -19 -19 -19 -19 -19 -19 -18 -18 -18 -18 -18 -18 -18 -18 -18 -18 -18 -19 -19 -19 -19 -19 -18 -18 -17 -17 -16 -16 -16 -16 -16 -15 -15 -15 -15 -15 -15 -15 -15 -15 -15 -15
-20 -20 -20 -20 -19 -19 -18 -18 -18 -17 -18 -18 -18 -18 -20 -19 -19 -19 -18 -19 -19 -19 -19 -19 -18 -18 -17 -17 -17 -16 -16 -16 -16 -16 -16 -16 -15 -15 -16 -16 -16 -16 -15
-20 -20 -20 -20 -19 -19 -18 -18 -18 -18 -17 -18 -18 -20 -21 -21 -20 -20 -20 -19 -19 -19 -19 -19 -19 -19 -18 -17 -17 -17 -17 -17 -16 -16 -16 -16 -16 -16 -16 -16 -16 -16 -16
-20 -20 -20 -20 -20 -19 -19 -18 -18 -17 -18 -18 -20 -21 -22 -22 -22 -22 -21 -21 -20 -20 -19 -19 -19 -19 -19 -18 -18 -17 -17 -17 -17 -17 -17 -17 -17 -16 -16 -16 -16 -16 -16
-20 -20 -20 -20 -20 -20 -20 -18 -18 -18 -19 -19 -19 -21 -22 -23 -23 -22 -22 -22 -21 -20 -20 -20 -19 -19 -19 -19 -18 -18 -18 -17 -17 -17 -17 -17 -17 -16 -16 -17 -16 -16 -16
-20 -20 -20 -19 -20 -20 -20 -20 -20 -19 -19 -20 -20 -21 -21 -22 -22 -22 -22 -22 -22 -21 -21 -20 -20 -19 -19 -19 -18 -18 -18 -18 -17 -17 -17 -17 -16 -16 -16 -16 -17 -17 -17
-21 -21 -21 -21 -21 -20 -19 -20 -20 -20 -20 -20 -20 -21 -21 -21 -22 -21 -21 -21 -21 -21 -21 -21 -20 -20 -19 -18 -18 -18 -18 -18 -17 -17 -17 -17 -17 -17 -17 -17 -17 -17 -17
-21 -21 -21 -22 -22 -22 -22 -22 -21 -20 -20 -20 -20 -20 -20 -21 -21 -21 -21 -20 -20 -21 -21 -21 -21 -21 -20 -18 -18 -19 -18 -18 -19 -19 -18 -18 -18 -18 -18 -18 -18 -18 -18
Height
5774 5781 5785 5787 5788 5794 5801 5805 5807 5809 5810 5816 5821 5826 5829 5832 5834 5835 5838 5841 5844 5847 5847 5848 5850 5851 5854 5858 5859 5859 5859 5861 5862 5861 5862 5862 5862 5862 5862 5861 5859 5858 5858
5762 5767 5774 5779 5784 5787 5792 5798 5802 5805 5806 5809 5815 5819 5822 5824 5824 5828 5834 5837 5839 5841 5842 5843 5845 5846 5848 5852 5854 5855 5855 5855 5856 5856 5856 5857 5857 5857 5857 5857 5856 5855 5853
5746 5754 5760 5768 5773 5778 5784 5789 5794 5798 5800 5803 5806 5811 5813 5815 5819 5825 5827 5828 5831 5835 5837 5838 5839 5841 5842 5845 5848 5849 5851 5851 5852 5851 5851 5852 5852 5852 5853 5852 5851 5850 5850
5730 5739 5746 5755 5764 5772 5778 5777 5778 5784 5789 5794 5799 5802 5805 5810 5814 5814 5817 5822 5824 5826 5828 5831 5832 5834 5836 5837 5839 5842 5844 5846 5847 5848 5847 5847 5848 5847 5848 5848 5847 5845 5844
5715 5723 5731 5741 5751 5760 5768 5772 5773 5774 5775 5783 5788 5792 5796 5799 5803 5808 5810 5814 5817 5819 5822 5823 5824 5826 5828 5831 5833 5835 5837 5840 5840 5841 5842 5840 5841 5841 5842 5842 5842 5840 5840
5700 5708 5717 5727 5737 5746 5756 5762 5765 5766 5769 5776 5781 5784 5786 5791 5796 5801 5804 5807 5810 5812 5816 5816 5818 5819 5821 5822 5825 5827 5829 5831 5832 5832 5833 5833 5834 5834 5835 5835 5836 5835 5835
5683 5693 5703 5712 5723 5732 5742 5749 5754 5759 5761 5767 5773 5763 5773 5778 5785 5790 5793 5797 5802 5805 5809 5811 5814 5816 5816 5817 5818 5820 5822 5823 5823 5823 5823 5824 5825 5825 5827 5829 5827 5829 5828
5664 5676 5689 5698 5709 5718 5728 5736 5743 5748 5753 5758 5763 5769 5770 5775 5778 5781 5785 5789 5792 5796 5800 5803 5806 5809 5809 5811 5812 5813 5816 5817 5817 5816 5816 5816 5818 5818 5818 5819 5819 5821 5820
5647 5660 5675 5684 5695 5705 5716 5725 5731 5737 5744 5748 5754 5761 5765 5769 5776 5775 5772 5775 5782 5787 5790 5794 5798 5801 5802 5804 5805 5807 5808 5809 5810 5810 5809 5808 5807 5808 5808 5807 5808 5809 5812
5632 5646 5660 5671 5681 5692 5702 5713 5721 5729 5734 5739 5746 5752 5757 5762 5765 5745 5754 5763 5769 5775 5779 5782 5787 5790 5793 5795 5797 5798 5800 5802 5802 5803 5803 5801 5801 5801 5801 5799 5798 5798 5798
5623 5633 5648 5659 5670 5682 5692 5702 5712 5719 5724 5729 5736 5742 5747 5752 5755 5757 5757 5760 5765 5765 5769 5776 5777 5782 5784 5786 5788 5790 5791 5793 5794 5795 5795 5794 5793 5793 5793 5792 5792 5790 5790
5614 5624 5638 5650 5661 5673 5684 5693 5701 5708 5714 5720 5726 5730 5735 5740 5744 5747 5749 5753 5756 5759 5762 5768 5772 5774 5776 5777 5780 5781 5782 5783 5785 5786 5787 5788 5786 5787 5786 5785 5785 5785 5782
5608 5615 5629 5640 5653 5665 5676 5685 5693 5699 5705 5711 5717 5722 5725 5730 5734 5737 5740 5744 5748 5751 5754 5757 5760 5763 5765 5768 5770 5771 5772 5774 5775 5777 5778 5780 5779 5779 5779 5778 5776 5774 5773
5605 5611 5625 5637 5649 5659 5669 5676 5684 5690 5697 5704 5708 5711 5714 5718 5722 5727 5732 5735 5739 5742 5744 5746 5748 5752 5755 5757 5759 5761 5763 5764 5766 5767 5768 5769 5770 5770 5770 5768 5767 5765 5764
5605 5613 5626 5637 5647 5654 5663 5670 5677 5683 5688 5693 5697 5701 5704 5707 5711 5714 5717 5721 5726 5730 5731 5734 5736 5740 5743 5746 5747 5750 5752 5754 5756 5757 5758 5759 5759 5759 5758 5756 5756 5755 5753
5611 5618 5625 5633 5640 5649 5656 5662 5669 5672 5676 5680 5685 5689 5693 5697 5700 5702 5705 5708 5712 5716 5719 5723 5726 5729 5732 5733 5735 5736 5740 5743 5745 5747 5747 5747 5747 5747 5746 5745 5744 5744 5742
5613 5619 5626 5632 5638 5644 5650 5654 5659 5662 5665 5669 5673 5676 5680 5683 5686 5690 5693 5696 5700 5702 5706 5710 5714 5717 5719 5719 5723 5726 5729 5731 5733 5734 5735 5736 5735 5735 5734 5733 5732 5732 5730
5617 5623 5627 5629 5634 5640 5644 5647 5649 5649 5653 5658 5663 5666 5668 5669 5671 5675 5679 5683 5687 5690 5693 5697 5699 5702 5701 5712 5714 5715 5718 5721 5723 5723 5724 5724 5723 5722 5720 5720 5720 5720 5718
5618 5621 5624 5627 5630 5633 5634 5636 5639 5642 5645 5647 5650 5652 5656 5657 5659 5661 5666 5670 5673 5677 5680 5682 5685 5685 5692 5699 5702 5703 5704 5707 5708 5709 5709 5709 5709 5708 5707 5706 5706 5707 5706
5619 5620 5620 5621 5621 5621 5623 5625 5627 5629 5632 5634 5635 5632 5633 5637 5641 5647 5650 5654 5659 5662 5666 5670 5672 5674 5678 5685 5688 5689 5690 5693 5695 5695 5695 5694 5694 5695 5693 5692 5691 5691 5691
5617 5619 5619 5618 5617 5616 5616 5618 5620 5624 5623 5624 5618 5611 5610 5614 5621 5628 5633 5638 5643 5648 5653 5658 5659 5661 5665 5670 5673 5675 5676 5679 5680 5680 5680 5680 5680 5679 5677 5675 5674 5673 5672
5621 5621 5620 5619 5617 5615 5612 5612 5614 5615 5615 5615 5606 5598 5595 5597 5604 5611 5618 5623 5629 5635 5638 5642 5646 5649 5652 5655 5658 5660 5661 5663 5663 5663 5664 5664 5663 5662 5660 5658 5656 5654 5653
5624 5623 5623 5621 5620 5617 5613 5610 5611 5612 5611 5609 5603 5596 5593 5594 5597 5603 5608 5612 5616 5621 5626 5629 5633 5636 5639 5642 5644 5645 5646 5645 5646 5647 5646 5646 5645 5644 5641 5639 5637 5635 5633
5624 5622 5621 5620 5618 5617 5617 5615 5613 5611 5610 5606 5600 5597 5594 5594 5595 5598 5602 5604 5606 5609 5612 5617 5620 5624 5627 5630 5631 5632 5632 5631 5630 5630 5629 5628 5626 5624 5622 5619 5616 5614 5611
5626 5626 5623 5621 5620 5618 5617 5616 5614 5613 5611 5606 5602 5598 5593 5593 5595 5598 5598 5598 5600 5602 5605 5608 5611 5613 5617 5620 5620 5620 5618 5616 5614 5612 5610 5608 5606 5603 5601 5597 5595 5592 5590
5634 5632 5630 5627 5624 5620 5618 5616 5614 5612 5609 5605 5602 5599 5597 5597 5597 5597 5596 5596 5598 5599 5600 5602 5604 5607 5604 5606 5606 5604 5602 5599 5596 5593 5590 5586 5583 5581 5578 5575 5571 5568 5565
Wind_Speed
54 49 45 44 43 40 37 33 30 29 29 30 29 27 31 31 31 33 30 29 26 26 25 22 22 22 22 23 24 23 22 21 17 13 13 12 12 14 14 15 15 15 17
57 56 53 48 45 42 38 36 35 33 32 34 32 31 32 37 36 36 33 34 30 29 29 27 23 22 23 24 26 27 25 25 21 18 18 16 14 14 16 15 15 14 16
61 59 57 54 50 47 42 39 39 38 36 37 35 36 36 37 34 31 32 34 36 38 33 32 28 26 25 25 26 25 26 26 24 22 21 21 18 17 17 16 16 15 15
66 62 60 57 54 49 48 47 48 45 43 40 39 40 39 39 34 38 33 31 28 27 29 38 42 35 31 29 28 24 24 23 26 25 22 23 24 22 21 19 17 18 18
70 66 63 59 55 52 50 50 49 51 49 46 44 47 47 47 39 40 33 28 27 28 29 32 38 46 36 34 35 33 31 31 28 29 32 31 27 27 24 24 21 20 18
74 70 66 62 58 56 52 54 52 51 52 48 46 44 47 40 36 39 37 32 32 29 26 22 24 27 31 37 40 42 41 40 34 31 31 30 31 36 35 25 26 24 23
78 73 69 66 61 58 56 55 57 55 54 51 49 42 46 41 49 44 39 36 35 31 27 27 18 17 19 21 24 31 33 35 32 35 36 34 32 35 34 33 30 26 27
78 76 70 68 65 61 58 57 57 58 55 53 52 49 44 48 41 48 44 40 38 36 34 31 26 25 24 24 23 20 24 22 19 20 23 32 36 36 37 35 39 36 33
72 73 69 68 68 64 60 57 56 59 57 57 54 50 47 43 41 45 41 48 47 41 38 35 35 32 31 27 27 29 25 25 24 22 26 30 32 40 40 40 40 42 41
65 68 64 67 66 65 62 60 56 58 57 55 55 51 49 47 49 40 46 34 42 41 42 42 40 35 32 32 32 32 32 31 27 26 23 26 20 17 21 23 33 38 46
46 62 64 65 64 62 61 58 58 59 57 55 51 48 50 53 53 53 53 45 39 40 34 28 40 39 34 35 36 35 34 32 31 29 26 24 19 20 22 20 19 22 31
43 52 60 63 62 62 58 56 57 54 54 55 54 53 52 47 50 52 52 46 48 43 35 39 37 35 36 35 37 36 38 36 37 35 32 29 29 29 28 28 31 35 34
43 49 58 57 56 56 55 55 53 52 47 43 42 46 50 52 49 50 50 46 47 45 42 41 40 40 37 39 40 41 41 39 37 39 39 39 36 36 39 36 36 31 32
32 46 53 60 55 53 52 52 50 52 48 46 44 46 48 49 50 53 54 53 52 50 49 47 46 41 38 38 40 43 43 42 40 39 38 39 40 41 41 43 40 41 39
17 44 45 52 55 55 54 50 49 43 45 45 44 45 46 47 50 54 54 57 56 56 54 51 48 46 42 42 45 46 44 43 42 41 41 41 42 41 42 42 43 45 46
17 32 36 52 56 51 48 46 47 49 46 45 42 45 50 55 55 55 54 55 56 56 57 54 53 50 49 48 49 48 47 46 47 47 47 48 47 46 47 47 47 46 46
8 5 23 40 47 51 46 42 47 49 47 42 39 40 43 44 47 53 58 59 57 58 59 59 57 56 54 54 54 52 52 51 52 52 51 51 51 50 50 51 50 50 50
2 4 8 11 41 40 37 33 31 40 43 43 45 49 56 54 53 55 52 51 55 59 60 61 60 62 61 57 58 58 57 53 54 54 53 53 53 53 53 53 52 53 53
12 17 17 25 24 32 39 43 47 37 43 45 48 49 57 55 58 60 58 56 54 52 56 63 65 66 64 61 60 60 59 57 57 58 58 57 56 56 57 59 58 57 58
7 5 5 11 24 35 40 47 45 39 46 52 52 59 61 66 63 63 62 61 59 59 52 56 61 66 66 62 61 60 60 62 62 63 64 63 63 63 62 62 62 63 63
9 7 7 6 2 14 27 32 35 32 37 36 48 46 47 63 64 61 60 62 60 63 59 54 50 55 64 65 63 64 64 63 63 64 65 65 65 65 66 68 68 68 68
7 5 8 9 13 13 8 21 24 18 22 17 22 24 25 35 50 54 53 54 61 60 56 54 53 58 53 58 65 65 66 66 67 67 67 66 68 69 70 71 72 72 72
6 7 10 9 10 13 15 6 8 9 14 15 12 13 17 20 26 32 37 43 49 57 57 57 58 60 60 55 50 58 63 66 68 67 68 68 69 70 72 73 74 75 75
12 12 10 9 12 9 8 12 11 8 5 6 6 6 9 9 11 17 25 29 31 42 50 51 51 64 64 62 62 58 60 64 68 68 70 70 72 74 75 76 77 78 78
25 22 17 9 6 6 7 9 12 6 10 14 13 18 15 6 3 11 13 10 17 25 31 39 45 49 51 63 66 67 63 64 66 69 72 74 76 77 79 81 82 82 83
26 26 26 27 28 28 26 22 17 11 10 13 14 18 17 20 18 13 6 2 10 11 12 19 27 34 35 50 58 65 68 72 75 77 79 82 84 86 88 89 89 90 91
Wind_Direction
245 240 239 226 225 227 231 236 236 234 235 234 233 222 239 236 235 234 235 236 237 240 242 241 240 236 236 239 242 243 250 256 262 270 283 293 307 314 321 332 322 297 272
242 244 239 237 231 227 227 231 238 237 236 236 236 231 228 235 235 241 245 244 244 242 244 243 242 241 239 241 243 246 249 257 259 262 271 278 290 300 304 317 329 307 291
240 240 242 239 237 228 226 226 234 237 237 237 235 228 230 230 239 241 242 243 244 241 245 246 246 247 245 244 243 246 253 258 261 264 269 277 281 286 291 297 310 319 302
240 238 237 239 237 236 234 224 222 229 233 233 235 235 232 235 234 226 237 242 240 243 247 251 250 250 246 247 246 248 250 256 261 262 261 269 277 278 282 285 290 296 311
237 236 237 236 235 233 235 235 230 229 230 226 228 235 233 234 223 232 236 238 242 248 248 249 252 246 251 256 259 261 262 258 262 264 268 264 260 262 272 279 281 284 291
233 235 234 234 234 233 231 237 236 233 236 234 234 236 243 236 222 233 237 234 240 246 255 249 236 244 248 255 261 263 267 266 266 271 273 271 273 274 260 255 271 277 281
230 231 231 233 231 232 232 233 239 237 236 236 235 233 238 226 228 224 232 236 239 244 246 250 249 253 255 253 260 250 256 264 270 268 266 266 263 268 270 259 254 263 275
227 229 228 229 229 230 229 232 236 239 237 238 237 236 239 244 222 223 225 235 239 240 242 246 243 246 254 254 251 249 252 249 260 260 265 267 265 262 266 269 265 263 266
226 227 224 227 228 228 228 230 234 239 238 237 238 237 237 241 246 254 232 231 234 236 238 242 243 241 251 251 251 246 250 252 259 265 268 264 262 258 256 254 263 270 270
223 222 216 222 226 228 229 229 231 237 236 236 237 238 236 234 238 249 245 244 243 244 236 237 242 240 242 248 251 250 252 256 257 258 271 265 255 273 294 287 274 278 274
218 220 215 216 221 225 228 227 229 232 235 237 238 238 238 236 237 239 248 252 254 258 242 261 246 240 240 244 249 251 254 252 253 258 261 269 257 247 253 275 274 300 301
211 215 215 215 218 223 226 227 228 229 234 236 237 239 241 240 239 242 248 246 249 253 262 258 255 257 250 242 248 252 253 254 253 257 257 258 256 255 259 272 276 289 292
210 205 209 210 216 219 224 225 227 230 231 233 236 241 244 244 244 243 244 245 244 246 249 254 258 255 244 245 250 252 252 254 256 255 259 258 259 258 259 271 271 262 270
202 200 206 209 211 217 223 230 229 232 240 246 247 249 248 248 247 246 245 244 244 244 245 247 250 253 240 245 250 251 251 251 255 256 259 263 264 265 270 270 270 268 272
166 194 210 217 218 219 226 238 246 241 244 250 247 247 244 245 247 247 247 247 245 245 243 243 246 246 244 242 246 249 250 248 252 257 259 262 264 266 267 271 272 271 273
183 198 205 215 221 228 236 246 249 250 252 253 253 246 246 243 242 247 246 244 245 246 246 245 243 243 243 243 243 243 245 249 253 257 260 261 263 264 265 269 272 273 274
65 134 220 220 223 234 241 245 256 256 255 251 248 244 243 250 251 241 245 245 246 246 246 245 246 243 242 242 243 245 245 248 252 255 257 260 263 265 268 270 273 274 276
272 229 251 245 227 232 241 252 270 262 253 250 254 254 250 254 257 244 245 242 243 247 248 246 245 247 244 244 245 247 250 250 253 256 258 260 262 265 266 268 270 272 275
266 258 243 250 250 247 249 250 256 260 255 251 254 252 252 254 256 253 254 250 248 252 253 249 249 248 249 247 248 249 250 252 252 254 256 259 262 265 267 268 270 272 275
215 234 251 258 261 263 258 252 258 261 264 259 267 266 256 250 248 251 249 250 254 253 252 254 255 251 248 247 248 250 250 250 253 255 257 259 261 265 269 271 272 273 274
124 136 93 67 350 272 259 259 260 264 262 265 278 284 256 246 245 245 246 248 252 254 249 249 252 256 254 251 249 251 253 253 255 256 259 262 265 267 268 270 272 273 273
59 12 4 3 357 354 283 249 254 272 256 302 292 283 265 244 241 242 246 249 248 250 251 252 253 253 256 256 252 252 254 256 258 260 261 263 265 267 268 270 271 273 274
358 337 334 315 334 343 8 6 272 252 265 293 307 283 270 252 244 249 249 250 249 251 255 256 260 261 257 263 261 262 260 259 260 263 265 266 267 269 270 271 272 272 273
13 349 340 336 338 310 345 20 35 27 20 351 347 295 249 237 238 250 259 257 253 249 246 249 256 261 261 267 267 273 267 264 264 265 266 267 267 268 269 270 271 272 272
65 59 53 37 4 343 299 319 5 18 22 28 57 51 52 197 188 266 298 248 253 254 252 255 260 263 264 266 266 266 268 266 266 266 267 267 267 267 268 269 269 270 271
70 66 64 63 64 64 62 58 54 41 33 38 26 25 28 24 32 27 47 137 199 239 251 257 258 256 259 259 262 264 267 269 271 272 273 273 273 273 273 273 274 275 276